This is the latest recevied weather packets stored in our database for station/object KB1JLI. If no packets are shown the sender has not sent any weather packets the latest 10 day(s).
| Time | Temp. | Humidity | Pressure | Rain* | Wind** | Luminosity | Snow |
|---|---|---|---|---|---|---|---|
| 1777710705 | 7.22° C | 84% | 1010.9 hPa | 0 mm | - | 0 W/m² | - |
| 1777710402 | 7.22° C | 84% | 1010.9 hPa | 0 mm | - | 0 W/m² | - |
| 1777710098 | 7.22° C | 84% | 1010.9 hPa | 0 mm | - | 0 W/m² | - |
| 1777709796 | 7.22° C | 85% | 1010.8 hPa | 0 mm | - | 0 W/m² | - |
| 1777709493 | 7.22° C | 84% | 1011.2 hPa | 0 mm | - | 0 W/m² | - |
| 1777709191 | 7.22° C | 84% | 1011.6 hPa | 0 mm | - | 0 W/m² | - |
| 1777708888 | 7.78° C | 84% | 1011.3 hPa | 0 mm | - | 0 W/m² | - |
| 1777708586 | 7.78° C | 83% | 1011.2 hPa | 0 mm | - | 0 W/m² | - |
| 1777708284 | 7.78° C | 83% | 1011.6 hPa | 0 mm | - | 0 W/m² | - |
| 1777707980 | 7.78° C | 83% | 1011.6 hPa | 0 mm | - | 0 W/m² | - |
| 1777707677 | 7.78° C | 83% | 1011.4 hPa | 0 mm | - | 0 W/m² | - |
| 1777707374 | 7.78° C | 82% | 1011.5 hPa | 0 mm | - | 0 W/m² | - |
| 1777707070 | 7.78° C | 82% | 1011.7 hPa | 0 mm | - | 0 W/m² | - |
| 1777706768 | 8.33° C | 80% | 1011.5 hPa | 0 mm | - | 0 W/m² | - |
| 1777706466 | 8.33° C | 79% | 1011.7 hPa | 0 mm | - | 0 W/m² | - |
| 1777706163 | 7.78° C | 79% | 1011.8 hPa | 0 mm | - | 0 W/m² | - |
| 1777705861 | 7.78° C | 80% | 1011.8 hPa | 0 mm | - | 0 W/m² | - |
| 1777705559 | 7.78° C | 81% | 1011.7 hPa | 0 mm | - | 0 W/m² | - |
| 1777705257 | 7.78° C | 79% | 1011.5 hPa | 0 mm | - | 0 W/m² | - |
| 1777704955 | 7.78° C | 78% | 1011.8 hPa | 0 mm | - | 0 W/m² | - |
| 1777704652 | 7.78° C | 80% | 1011.6 hPa | 0 mm | - | 0 W/m² | - |
| 1777704351 | 7.22° C | 80% | 1011.3 hPa | 0 mm | - | 0 W/m² | - |
| 1777704047 | 6.67° C | 83% | 1011.4 hPa | 0 mm | - | 0 W/m² | - |
| 1777703745 | 6.67° C | 84% | 1011.3 hPa | 0 mm | - | 0 W/m² | - |
| 1777703443 | 6.67° C | 84% | 1011.3 hPa | 0 mm | - | 0 W/m² | - |
* Rain latest hour (hover to see other rain measurements)
** Current wind speed in m/s (hover to see current wind gust speed)